Carbondale, IL

8:05 AM CDT on April 25, 2018 (GMT -0500)
Southern Illinois

Weather History for KMDH - July, 2013

Change the Weather History Date:

Saturday, July 13, 2013

  Actual Average Record
Temperature  
Mean Temperature 72 °F -  
Max Temperature 86 °F 89 °F 111 °F (1936)
Min Temperature 59 °F 68 °F 50 °F (1959)
Cooling Degree Days 6    
Growing Degree Days 22 (Base 50)    
Moisture  
Dew Point 60 °F    
Average Humidity 75    
Maximum Humidity 100    
Minimum Humidity 43    
Precipitation  
Precipitation 0.00 in - - ()
Sea Level Pressure  
Sea Level Pressure 30.05 in    
Wind  
Wind Speed 2 mph (NE)    
Max Wind Speed 9 mph    
Max Gust Speed -    
Visibility 7 miles    
Events Fog    
Averages and records for this station are not official NWS values.
T = Trace of Precipitation, MM = Missing Value Source: NWS Daily Summary

Daily Weather History Graph

Daily Weather History Graph

Search for Another Location

Airport or City:

Astronomy

Jul. 13, 2013 Rise Set
Actual Time 5:45 AM CDT 8:19 PM CDT
Civil Twilight 5:15 AM CDT 8:49 PM CDT
Nautical Twilight 4:37 AM CDT 9:27 PM CDT
Astronomical Twilight 3:55 AM CDT 10:09 PM CDT
Moon 10:55 AM CDT (7/13) 11:07 PM CDT (7/13)
Length of Visible Light 15h 34m
Length of Day
14h 33m
Waxing Crescent, 26% of the Moon is Illuminated
Jul 13
Waxing Crescent
Jul 15
First Quarter
Jul 22
Full
Jul 29
Last Quarter
Aug 6
New

Hourly Weather History & Observations

Time (CDT) Temp. Heat Index Dew Point Humidity Pressure Visibility Wind Dir Wind Speed Gust Speed Precip Events Conditions
12:52 AM 63.0 °F - 61.0 °F 93% 30.05 in 10.0 mi Calm Calm - N/A   Clear
1:52 AM 62.1 °F - 60.1 °F 93% 30.05 in 10.0 mi Calm Calm - N/A   Clear
2:52 AM 62.1 °F - 60.1 °F 93% 30.04 in 8.0 mi Calm Calm - N/A   Clear
3:52 AM 61.0 °F - 59.0 °F 93% 30.06 in 6.0 mi Calm Calm - N/A   Clear
4:28 AM 60.8 °F - 60.8 °F 100% 30.07 in 1.5 mi Calm Calm - N/A   Clear
4:47 AM 59.0 °F - 57.2 °F 94% 30.06 in 0.5 mi Calm Calm - N/A Fog Fog
4:52 AM 59.0 °F - 57.9 °F 96% 30.06 in 0.5 mi Calm Calm - N/A Fog Fog
5:02 AM 60.8 °F - 57.2 °F 88% 30.07 in 0.5 mi Calm Calm - N/A Fog Fog
5:15 AM 60.8 °F - 59.0 °F 94% 30.06 in 1.0 mi Calm Calm - N/A   Clear
5:20 AM 59.0 °F - 57.2 °F 94% 30.06 in 0.5 mi Calm Calm - N/A Fog Fog
5:35 AM 60.8 °F - 57.2 °F 88% 30.06 in 0.5 mi Calm Calm - N/A Fog Fog
5:52 AM 59.0 °F - 57.9 °F 96% 30.07 in 0.2 mi Calm Calm - N/A Fog Fog
6:27 AM 60.8 °F - 59.0 °F 94% 30.08 in 1.0 mi Calm Calm - N/A   Clear
6:32 AM 60.8 °F - 59.0 °F 94% 30.08 in 3.0 mi Calm Calm - N/A   Clear
6:52 AM 62.1 °F - 60.1 °F 93% 30.07 in 7.0 mi Calm Calm - N/A   Clear
7:52 AM 68.0 °F - 63.0 °F 84% 30.07 in 10.0 mi Calm Calm - N/A   Partly Cloudy
8:52 AM 73.0 °F - 63.0 °F 71% 30.08 in 10.0 mi Variable 3.5 mph - N/A   Partly Cloudy
9:52 AM 77.0 °F - 63.0 °F 62% 30.07 in 10.0 mi ENE 4.6 mph - N/A   Partly Cloudy
10:52 AM 81.0 °F 81.3 °F 59.0 °F 47% 30.07 in 10.0 mi NNW 6.9 mph - N/A   Clear
11:52 AM 82.0 °F 82.1 °F 59.0 °F 45% 30.06 in 10.0 mi NE 8.1 mph - N/A   Clear
12:52 PM 82.9 °F 83.2 °F 60.1 °F 46% 30.06 in 10.0 mi NE 6.9 mph - N/A   Partly Cloudy
1:52 PM 82.9 °F 83.2 °F 60.1 °F 46% 30.05 in 10.0 mi NE 9.2 mph - N/A   Partly Cloudy
2:52 PM 82.0 °F 82.7 °F 61.0 °F 49% 30.03 in 7.0 mi NNE 6.9 mph - N/A   Mostly Cloudy
3:52 PM 81.0 °F 81.7 °F 61.0 °F 50% 30.02 in 7.0 mi NE 9.2 mph - N/A   Scattered Clouds
4:52 PM 84.9 °F 84.8 °F 60.1 °F 43% 30.01 in 10.0 mi NNE 6.9 mph - N/A   Clear
5:52 PM 84.0 °F 83.8 °F 59.0 °F 43% 30.01 in 10.0 mi NE 9.2 mph - N/A   Partly Cloudy
6:52 PM 82.9 °F 82.8 °F 59.0 °F 44% 30.01 in 10.0 mi ENE 6.9 mph - N/A   Partly Cloudy
7:52 PM 78.1 °F - 61.0 °F 56% 30.02 in 10.0 mi East 5.8 mph - N/A   Clear
8:52 PM 73.9 °F - 60.1 °F 62% 30.03 in 10.0 mi ENE 4.6 mph - N/A   Clear
9:52 PM 72.0 °F - 61.0 °F 68% 30.04 in 10.0 mi East 5.8 mph - N/A   Clear
10:52 PM 68.0 °F - 62.1 °F 81% 30.04 in 10.0 mi NE 3.5 mph - N/A   Clear
11:52 PM 66.0 °F - 62.1 °F 87% 30.04 in 10.0 mi Calm Calm - N/A   Clear